FREGAT R/B, 44300

Orbit data source: Space-Track

FREGAT R/B, 44300 is space debris in MEO originally from a launch on Mon, 27 May 2019 UTC launched from the Plesetsk Missile And Space Complex (PKMTR). Debris objects in space refer to the collection of defunct objects orbiting the Earth. Examples of debris include non-operational satellites, rocket bodies, and fragments generated from explosions, collisions, or faulty payload assembly.

Loading next visibility...
FREGAT R/B details
Identifier
44300, 2019-030B
Orbit
MEO
Last TLE update2 days ago
Origin
Flag of CISLavochkin (CIS)
ManufacturerLavochkin
MissionSpacecraft
Bus & MotorFREGAT, Unknown motor
Mass1,000 kg wet, 1,000 kg dry
Launch date (UTC)
2019-05-27 (6 years ago)
Launch vehicleUnknown
Launch site
Plesetsk Missile And Space Complex (PKMTR)
Object type
Payload
Rocket body
Debris
Shape & HBRIrr, 3.48 m
Radar Cross Section12.110 m², Large (>1 m²)

Expand to show TLE details & history

TLE from 2 days ago
0 FREGAT R/B
1 44300U 19030B   24344.97804136  .00000073  00000-0  00000-0 0  9999
2 44300  64.3048 214.0122 0074431 135.1321 225.5549  2.09028747 42305
Epoch: 2024-12-09T23:28Z
Definitive object data (Epoch: 2024-12-09T23:28:22.773Z)
Latitude-0.00006°
Longitude142.72586°
Altitude19,596.274 km
Speed3.907 km/s
True Right ascension14h 16m 03s
True Declination0° 00' 00"
Sunlit
Object was in daylight at TLE epoch
Visualization TLE readout
Latitude3.16773°
Longitude144.18717°
Altitude19,587.262 km
Speed3.909 km/s
Apparent Right ascension13h 38m 26s
Apparent Declination-5° 50' 14"
Sunlit
Object is in daylight
Visualization observer readout
Local Sidereal Time19:54:38
Azimuth268.099° W
Elevation-6.842°
Doppler factor1
Orbital elements
Apogee altitude19,652.155 km
Perigee altitude19,267.526 km
Semi-major axis25,837.978 km
Eccentricity0.0074431
Inclination64.3048°
RAAN214.0122°
Arg. of periapsis135.1321°
True anomaly224.94994°
Mean anomaly225.5549°
Eccentric anomaly225.25203°
Mean motion0.52258 °/min
BSTARUnknown
Orbital period688.89 mins
Loading maneuver chart data...
Loading historical data...
Loading historical data...
Loading historical data...
Loading historical data...
Loading historical data...
Loading historical data...
Loading historical data...
Other satellites on launch #30 in the year 2019 (2019-05-27 UTC)

FREGAT R/B Visibility forecast

Observer location: undefined°, undefined

Span
Click to sort rows by Start time (UTC) header in descending order
Start Az.
Max El. time (UTC)
Max El. Az.
Max El.
End time (UTC)
End Az.
327 mins2024-12-11 22:31:46.654Z291.37° WNW2024-12-12 01:35:46.654Z69.627° E44.665°2024-12-12 03:58:46.654Z169.147° S
40 mins2024-12-12 20:50:46.654Z267.255° W2024-12-12 21:30:46.654Z284.463° WNW20.673°2024-12-12 21:30:46.654Z284.463° WNW
|